Home   Weather   Culpeper   Past weeks
Flag for USA

Past Weather in Culpeper, Virginia, USA — Yesterday and Last 2 Weeks

Now
52 °F

Clear.


Feels Like: 52 °F
Forecast: 64 / 37 °F
Wind: No wind

Location: Culpeper County Airport

Current Time: Oct 17, 2019 at 9:53:25 pm

Latest Report: Oct 17, 2019 at 9:15 pm


Visibility: 10 mi

Pressure: 29.84 "Hg

Humidity: 47%

Dew Point: 32 °F

Location of CulpeperLocation

Past Weather in Culpeper — Graph

°F

Culpeper Temperature Yesterday

Maximum temperature yesterday: 61 °F (at 4:55 pm)
Minimum temperature yesterday: 49 °F (at 12:55 am)
Average temperature yesterday: 56 °F

High & Low Weather Summary for the Past Weeks

 TemperatureHumidityPressure
High82 °F (Oct 7, 3:55 pm)96% (Oct 9, 11:55 pm)30.44 "Hg (Oct 9, 11:55 pm)
Low37 °F (Oct 14, 7:55 am)18% (Oct 14, 3:35 pm)29.57 "Hg (Oct 16, 2:35 pm)
Average60 °F68%30.10 "Hg
* Reported Oct 2 8:15 pm — Oct 17 8:35 pm, Culpeper. Weather by CustomWeather, © 2019

Note: Actual official high and low records may vary slightly from our data, if they occured in-between our weather recording intervals... More about our weather records

Advertising

Culpeper Weather History for the Previous 24 Hours

Scroll right to see more
 ConditionsComfort  
Time TempWeatherWind HumidityBarometerVisibility
8:35 pm
Thu, Oct 17
54 °FClear.5 mph42%29.83 "Hg10 mi
8:15 pm55 °FClear.3 mph40%29.82 "Hg10 mi
7:55 pm56 °FClear.5 mph38%29.82 "Hg10 mi
7:35 pm56 °FClear.6 mph38%29.81 "Hg10 mi
7:15 pm56 °FClear.6 mph40%29.81 "Hg10 mi
6:55 pm56 °FClear.3 mph39%29.80 "Hg10 mi
6:35 pm58 °FClear.5 mph35%29.79 "Hg10 mi
6:15 pm59 °FSunny.7 mph34%29.77 "Hg10 mi
5:55 pm60 °FSunny.10 mph33%29.76 "Hg10 mi
5:35 pm62 °FSunny.12 mph32%29.76 "Hg10 mi
5:15 pm62 °FSunny.8 mph31%29.75 "Hg10 mi
4:35 pm62 °FScattered clouds.9 mph31%29.74 "Hg10 mi
4:15 pm63 °FScattered clouds.10 mph32%29.74 "Hg10 mi
3:55 pm63 °FScattered clouds.10 mph32%29.74 "Hg10 mi
3:35 pm63 °FScattered clouds.14 mph33%29.73 "Hg10 mi
3:15 pm62 °FScattered clouds.12 mph33%29.73 "Hg10 mi
2:55 pm63 °FPartly sunny.14 mph34%29.73 "Hg10 mi
2:35 pm62 °FOvercast.12 mph35%29.73 "Hg10 mi
1:55 pm61 °FPartly sunny.10 mph35%29.74 "Hg10 mi
1:35 pm62 °FScattered clouds.15 mph34%29.73 "Hg10 mi
1:15 pm62 °FPartly sunny.12 mph34%29.73 "Hg10 mi
12:55 pm61 °FOvercast.14 mph36%29.74 "Hg10 mi
12:35 pm62 °FOvercast.14 mph36%29.74 "Hg10 mi
11:55 am60 °FOvercast.12 mph37%29.73 "Hg10 mi
10:35 am56 °FOvercast.7 mph42%29.72 "Hg10 mi
9:55 am55 °FOvercast.8 mph44%29.71 "Hg10 mi
9:35 am56 °FOvercast.6 mph44%29.71 "Hg10 mi
9:15 am54 °FPartly sunny.9 mph44%29.71 "Hg10 mi
8:55 am54 °FSunny.10 mph43%29.69 "Hg10 mi
8:15 am53 °FSunny.5 mph45%29.67 "Hg10 mi
7:55 am54 °FSunny.8 mph43%29.67 "Hg10 mi
7:35 am53 °FSunny.15 mph45%29.66 "Hg10 mi
7:15 am54 °FClear.14 mph44%29.66 "Hg10 mi
6:55 am54 °FClear.15 mph43%29.66 "Hg10 mi
6:35 am54 °FPassing clouds.13 mph43%29.66 "Hg10 mi
6:15 am54 °FPassing clouds.10 mph44%29.65 "Hg10 mi
5:55 am54 °FPassing clouds.10 mph44%29.64 "Hg10 mi
5:35 am55 °FPassing clouds.12 mph44%29.64 "Hg10 mi
5:15 am55 °FPassing clouds.10 mph43%29.64 "Hg10 mi
4:55 am54 °FClear.9 mph45%29.63 "Hg10 mi
4:15 am52 °FPassing clouds.7 mph52%29.62 "Hg10 mi
3:55 am51 °FPassing clouds.5 mph53%29.62 "Hg10 mi
3:35 am53 °FPassing clouds.5 mph48%29.61 "Hg10 mi
3:15 am53 °FClear.9 mph49%29.61 "Hg10 mi
2:35 am53 °FPassing clouds.7 mph48%29.61 "Hg10 mi
2:15 am52 °FClear.8 mph51%29.62 "Hg10 mi
1:55 am52 °FClear.8 mph52%29.62 "Hg10 mi
1:35 am53 °FClear.8 mph51%29.61 "Hg10 mi
1:15 am51 °FClear.3 mph53%29.62 "Hg10 mi
12:55 am50 °FClear.5 mph55%29.62 "Hg10 mi
12:35 am52 °FClear.No wind51%29.63 "Hg10 mi
12:15 am50 °FClear.5 mph55%29.63 "Hg10 mi
11:55 pm
Wed, Oct 16
49 °FClear.3 mph57%29.63 "Hg10 mi
11:35 pm50 °FClear.3 mph56%29.64 "Hg10 mi
11:15 pm52 °FClear.6 mph52%29.63 "Hg10 mi
10:55 pm52 °FClear.8 mph52%29.63 "Hg10 mi
10:35 pm53 °FClear.7 mph48%29.64 "Hg10 mi
9:55 pm54 °FPassing clouds.10 mph51%29.64 "Hg10 mi
9:35 pm54 °FPassing clouds.7 mph50%29.65 "Hg10 mi
9:15 pm55 °FPassing clouds.12 mph49%29.64 "Hg10 mi
Weather by CustomWeather, © 2019

See weather overview